[[{"header":{"parameterUnit":"m.s-1","parameterCategory":1,"la1":30.2991,"la2":30.254,"lo1":-89.0895,"lo2":-89.0444,"dy":0.0017,"dx":0.0017,"nx":28,"ny":28,"refTime":"2024-05-22T21:00:00:Z","depth":0,"parameterNumber":2,"parameterNumberName":"U-component_of_WINDS"},"data":[0,0,0,0,0,0,0,0,0,0,0,0,0,0,0,0,0,0,0,0,0,0,0,0,0,0,0,0,0,0,0,0,0,0,0,0,0,0,0,0,0,0,0,0,0,0,0,0,0,0,0,0,0,0,0,0,0,0,0.3643,0.3644,0,0.3728,0.3729,0.373,0.3746,0.3745,0.3744,0.3744,0.3833,0.3836,0.3839,0,0,0,0,0,0,0,0,0,0,0,0,0,0.3497,0.3499,0.3643,0.3644,0.3645,0.3728,0.3729,0.373,0.3746,0.3745,0.3744,0.3743,0.3832,0.3836,0.3839,0,0,0,0,0,0,0,0,0,0,0,0,0,0.3569,0.35,0.3643,0.3663,0.3666,0.3727,0.3729,0.373,0.3746,0.3745,0.3744,0.3743,0.3831,0.3835,0.384,0.3888,0,0,0.3854,0.3856,0,0,0,0,0,0,0,0,0.3565,0.3574,0.3659,0.3662,0.3665,0.3725,0.371,0.3783,0.3746,0.3716,0.3744,0.3743,0.3798,0.3805,0.3824,0.3892,0.3896,0.3854,0.3857,0.3859,0.386,0,0,0,0,0,0,0,0.356,0.3571,0.3677,0.366,0.3664,0.3668,0.3677,0.3724,0.3762,0.3718,0.372,0.3729,0.38,0.3819,0.3826,0.3898,0.3854,0.3858,0.3861,0.3863,0.401,0.4011,0,0,0,0,0,0,0.3551,0.3566,0.3674,0.3679,0.3611,0.3672,0.3682,0.3707,0.3761,0.3768,0.373,0.373,0.3812,0.3821,0.3829,0.3889,0.3859,0.3863,0.3866,0.4009,0.401,0.4011,0,0,0,0,0,0,0.3548,0.356,0.367,0.3623,0.3637,0.3675,0.3703,0.3709,0.3729,0.377,0.3777,0.3743,0.3812,0.3823,0.3873,0.3892,0.3865,0.3869,0.4007,0.4009,0.4011,0.401,0,0,0,0,0,0,0.3543,0.3559,0.3577,0.3623,0.364,0.3713,0.3704,0.3711,0.3736,0.3736,0.3784,0.3791,0.3812,0.3866,0.3878,0.3898,0.3873,0.4006,0.4008,0.401,0.4008,0.4011,0.4014,0,0,0,0,0,0.3538,0.3574,0.3578,0.3591,0.3664,0.3714,0.3723,0.3745,0.3737,0.3757,0.3783,0.379,0.3888,0.3871,0.3884,0.3906,0.4005,0.4007,0.401,0.4007,0.4011,0.4014,0,0,0,0,0,0,0.3531,0.3581,0.3586,0.3638,0.3671,0.3716,0.3741,0.3749,0.3786,0.3785,0.3811,0.3822,0.3871,0.3894,0.3874,0.3956,0.3946,0.3951,0.3939,0.3943,0.3946,0.394,0.3876,0,0,0,0,0,0.3535,0.3571,0.3613,0.3655,0.3671,0.3703,0.3726,0.374,0.3776,0.379,0.3821,0.3856,0.3895,0.392,0.3958,0.4011,0.4022,0.4033,0.4036,0.4038,0.4042,0.4072,0.4077,0.402,0.402,0.402,0,0,0.3545,0.3577,0.3598,0.3654,0.3682,0.3719,0.3715,0.3755,0.3783,0.3797,0.3846,0.3869,0.391,0.3962,0.3986,0.3983,0.406,0.4041,0.4042,0.4046,0.4075,0.408,0.4085,0.4022,0.4022,0.4022,0,0,0.3582,0.3609,0.3647,0.3674,0.3715,0.3736,0.3745,0.3789,0.3805,0.3854,0.3865,0.3899,0.3966,0.3994,0.4018,0.4064,0.4071,0.4075,0.409,0.4119,0.4123,0.4127,0.4144,0.4149,0.408,0.408,0.408,0,0.3589,0.3645,0.3666,0.3704,0.3729,0.3742,0.3781,0.3807,0.3858,0.3875,0.387,0.3953,0.3982,0.404,0.4051,0.407,0.4081,0.4071,0.4121,0.4125,0.4129,0.4145,0.4151,0.408,0.408,0.408,0.408,0,0.3651,0.369,0.3715,0.3764,0.3791,0.383,0.3857,0.3883,0.3894,0.3915,0.3965,0.4,0.4045,0.4059,0.4071,0.4119,0.4116,0.4115,0.4106,0.4134,0.415,0.4156,0.408,0.408,0.408,0.408,0,0,0.3687,0.3746,0.3755,0.3777,0.3823,0.3853,0.3892,0.3935,0.3957,0.3992,0.4025,0.408,0.408,0.4106,0.4121,0.4146,0.418,0.4142,0.4144,0.4148,0.4235,0.4236,0.4242,0.4185,0.4186,0.4187,0.4232,0,0.373,0.3799,0.3819,0.3878,0.3913,0.3926,0.396,0.3992,0.4012,0.4046,0.4069,0.4108,0.4104,0.412,0.4145,0.417,0.4198,0.4167,0.4217,0.4218,0.4207,0.4251,0.4252,0.4292,0.4238,0.4239,0.424,0,0.3789,0.3824,0.3886,0.3926,0.3942,0.3972,0.4013,0.4045,0.4081,0.4095,0.4123,0.4136,0.4177,0.4164,0.4222,0.4201,0.4222,0.4237,0.424,0.4246,0.4231,0.4258,0.4306,0.4312,0.425,0.4249,0.4248,0,0.3809,0.3872,0.3917,0.3935,0.3984,0.4005,0.4026,0.4061,0.4086,0.4121,0.4137,0.4177,0.42,0.4231,0.4254,0.4242,0.4309,0.4299,0.4322,0.4321,0.4336,0.4335,0.4388,0.4348,0.4348,0.4348,0.4348,0,0.3855,0.3892,0.3926,0.3954,0.3997,0.4019,0.406,0.4082,0.4113,0.4146,0.4159,0.4189,0.4217,0.4251,0.427,0.4314,0.4324,0.4336,0.4341,0.4336,0.4334,0.4351,0.4349,0.435,0.435,0.4349,0.4349,0,0.3885,0.3909,0.3959,0.4001,0.4012,0.4041,0.4077,0.4104,0.4125,0.4166,0.4177,0.4209,0.425,0.4275,0.4327,0.434,0.4389,0.4392,0.4376,0.4379,0.44,0.4398,0.4466,0.4477,0.4429,0.443,0.443,0,0.3913,0.3942,0.3986,0.4008,0.4029,0.4065,0.409,0.4113,0.4138,0.4181,0.4203,0.4244,0.4279,0.4343,0.4372,0.4411,0.4416,0.4437,0.4422,0.4416,0.4417,0.4415,0.4418,0.444,0.444,0.4441,0.4441,0,0.396,0.397,0.4005,0.4044,0.4072,0.4104,0.4136,0.4153,0.4182,0.4209,0.425,0.4277,0.4329,0.437,0.4412,0.4434,0.4443,0.4445,0.4453,0.4448,0.4438,0.4444,0.4384,0.4444,0.4444,0.4443,0.4443,0.4443,0.399,0.4016,0.4051,0.4089,0.4115,0.4144,0.4172,0.4195,0.423,0.4274,0.4285,0.4328,0.4363,0.442,0.4443,0.4477,0.4475,0.4486,0.4488,0.4491,0.4491,0.4431,0.4485,0.4485,0.4485,0.4485,0.4485,0,0.4038,0.4061,0.4095,0.4139,0.4169,0.4172,0.4208,0.4232,0.427,0.4302,0.4335,0.4382,0.4421,0.4452,0.4493,0.4514,0.4519,0.4524,0.4523,0.4528,0.4491,0.4481,0.4519,0.4519,0.4519,0.4519,0.4519,0.4519,0.4066,0.4111,0.4125,0.4183,0.4205,0.4247,0.4267,0.4294,0.4319,0.4371,0.4403,0.4423,0.4454,0.4497,0.4533,0.4541,0.4555,0.456,0.4569,0.4534,0.4531,0.4527,0.4517,0.4563,0.4563,0.4602,0.4603,0.4603]},{"header":{"parameterUnit":"m.s-1","parameterCategory":1,"la1":30.2991,"la2":30.254,"lo1":-89.0895,"lo2":-89.0444,"dy":0.0017,"dx":0.0017,"nx":28,"ny":28,"refTime":"2024-05-22T21:00:00:Z","depth":0,"parameterNumber":3,"parameterNumberName":"V-component_of_WINDS"},"data":[0,0,0,0,0,0,0,0,0,0,0,0,0,0,0,0,0,0,0,0,0,0,0,0,0,0,0,0,0,0,0,0,0,0,0,0,0,0,0,0,0,0,0,0,0,0,0,0,0,0,0,0,0,0,0,0,0,0,3.3148,3.3146,0,3.3035,3.3033,3.3032,3.2968,3.2968,3.2968,3.2968,3.2846,3.2843,3.284,0,0,0,0,0,0,0,0,0,0,0,0,0,3.3305,3.3303,3.3148,3.3146,3.3145,3.3035,3.3033,3.3032,3.2968,3.2968,3.2968,3.2967,3.2847,3.2844,3.284,0,0,0,0,0,0,0,0,0,0,0,0,0,3.3219,3.3302,3.3148,3.31,3.3095,3.3035,3.3033,3.3031,3.2968,3.2968,3.2968,3.2967,3.2848,3.2844,3.284,3.2817,0,0,3.2826,3.2824,0,0,0,0,0,0,0,0,3.3224,3.3213,3.3109,3.3103,3.3097,3.3015,3.3044,3.2959,3.2968,3.3016,3.2968,3.2967,3.2902,3.2893,3.2873,3.2811,3.2806,3.2825,3.2822,3.282,3.2819,0,0,0,0,0,0,0,3.323,3.3218,3.3103,3.3107,3.31,3.3083,3.3071,3.3028,3.2962,3.3012,3.3007,3.2995,3.2899,3.2877,3.2869,3.2804,3.2825,3.2821,3.2818,3.2817,3.2721,3.2721,0,0,0,0,0,0,3.3244,3.3223,3.3106,3.3099,3.3161,3.3081,3.3066,3.3042,3.2962,3.295,3.2995,3.2992,3.2885,3.2875,3.2865,3.2835,3.282,3.2816,3.2814,3.2721,3.2721,3.2721,0,0,0,0,0,0,3.3248,3.3234,3.3111,3.316,3.3143,3.3078,3.3051,3.304,3.3018,3.295,3.2937,3.2985,3.2884,3.2871,3.283,3.2829,3.2814,3.281,3.2721,3.2721,3.2721,3.2773,0,0,0,0,0,0,3.3253,3.3236,3.3228,3.316,3.3141,3.308,3.3051,3.3038,3.3011,3.3006,3.2937,3.2925,3.2883,3.2837,3.2826,3.2823,3.2806,3.272,3.2721,3.2721,3.2771,3.2776,3.2779,0,0,0,0,0,3.3258,3.3245,3.3227,3.3214,3.3129,3.308,3.3068,3.3022,3.3011,3.3001,3.2958,3.2927,3.2832,3.2834,3.282,3.2816,3.272,3.2721,3.2721,3.277,3.2775,3.2779,0,0,0,0,0,0,3.3311,3.3235,3.3215,3.318,3.3137,3.3069,3.3055,3.3028,3.2986,3.2983,3.2925,3.291,3.2875,3.2841,3.2845,3.2791,3.2773,3.277,3.2814,3.2818,3.2822,3.2831,3.2803,0,0,0,0,0,3.3319,3.3287,3.3222,3.3197,3.3177,3.3121,3.3097,3.3065,3.3018,3.2999,3.2952,3.2906,3.2866,3.284,3.2799,3.2767,3.2751,3.2757,3.2761,3.2764,3.2763,3.2744,3.2747,3.2723,3.2723,3.2723,0,0,3.3334,3.3289,3.3272,3.3207,3.317,3.3137,3.3105,3.3071,3.3046,3.2993,3.2952,3.2917,3.2862,3.2826,3.2807,3.2796,3.2766,3.2765,3.2768,3.2764,3.2745,3.2747,3.2749,3.2723,3.2723,3.2723,0,0,3.3346,3.3308,3.3284,3.3249,3.3195,3.3158,3.3152,3.3089,3.3064,3.3023,3.2983,3.2952,3.2883,3.2846,3.2818,3.2819,3.2789,3.2807,3.2826,3.2809,3.2811,3.2812,3.2813,3.2814,3.2806,3.2806,3.2806,0,3.3371,3.3322,3.3275,3.3245,3.3217,3.3171,3.3146,3.3113,3.3047,3.3029,3.3018,3.2933,3.2892,3.2847,3.2848,3.2827,3.2818,3.2814,3.2815,3.2815,3.2816,3.2816,3.2817,3.2808,3.2808,3.2808,3.2807,0,3.3356,3.3322,3.3309,3.3251,3.3222,3.3194,3.3143,3.3119,3.309,3.3054,3.3014,3.2964,3.2913,3.29,3.287,3.2851,3.2846,3.2826,3.2806,3.2822,3.2821,3.2821,3.2812,3.2811,3.281,3.281,0,0,3.3395,3.3314,3.3309,3.3283,3.3221,3.3193,3.3164,3.3117,3.3098,3.3054,3.3028,3.2973,3.2955,3.2923,3.2889,3.2874,3.2879,3.2855,3.2853,3.2862,3.2856,3.2873,3.2874,3.286,3.286,3.2859,3.2861,0,3.3398,3.3345,3.3304,3.3266,3.3235,3.3191,3.3166,3.3125,3.3091,3.3058,3.302,3.2982,3.296,3.2941,3.2924,3.2882,3.2877,3.2882,3.2834,3.2833,3.285,3.2873,3.2889,3.2894,3.2861,3.2861,3.2861,0,3.3393,3.3355,3.3316,3.3259,3.3244,3.3223,3.3177,3.3147,3.3099,3.3076,3.3043,3.3008,3.2975,3.2959,3.2912,3.2916,3.2895,3.2871,3.287,3.2864,3.2848,3.2868,3.2894,3.2895,3.286,3.286,3.286,0,3.3428,3.3366,3.3334,3.3313,3.3246,3.3232,3.3203,3.3156,3.3131,3.309,3.3073,3.3029,3.3004,3.297,3.2925,3.2918,3.2883,3.2863,3.2862,3.2863,3.2856,3.2857,3.288,3.2842,3.2842,3.2842,3.2842,0,3.3435,3.3412,3.3349,3.333,3.3304,3.3256,3.3231,3.3198,3.3157,3.313,3.3089,3.3064,3.3005,3.2973,3.2937,3.2905,3.2894,3.2873,3.2864,3.2877,3.288,3.2862,3.286,3.2842,3.2842,3.2842,3.2842,0,3.3468,3.3425,3.3388,3.3329,3.3314,3.3297,3.3246,3.3225,3.3191,3.3157,3.3146,3.3091,3.3051,3.3003,3.2947,3.2923,3.2894,3.288,3.2911,3.2905,3.2907,3.2908,3.2919,3.2918,3.2882,3.2882,3.2882,0,3.3475,3.3457,3.3398,3.3378,3.3352,3.332,3.3295,3.3248,3.3224,3.317,3.3156,3.3114,3.3078,3.3017,3.2971,3.2928,3.2913,3.292,3.2906,3.2921,3.2914,3.2916,3.2914,3.2923,3.2924,3.2924,3.2925,0,3.3493,3.3474,3.3441,3.3401,3.3374,3.3339,3.3303,3.3289,3.3234,3.3209,3.317,3.3142,3.3087,3.3046,3.2998,3.2967,3.2937,3.293,3.2927,3.294,3.296,3.295,3.2921,3.2929,3.2929,3.2929,3.2928,3.2928,3.3514,3.3497,3.3454,3.3419,3.3387,3.3355,3.3334,3.3298,3.3265,3.3218,3.3192,3.3154,3.3108,3.3042,3.3012,3.2981,3.2969,3.2966,3.2965,3.2965,3.2969,3.2965,3.2971,3.2971,3.2971,3.2971,3.2971,0,3.3531,3.3502,3.347,3.3423,3.3396,3.3373,3.3332,3.331,3.3278,3.3239,3.3206,3.3162,3.3122,3.3074,3.3032,3.3016,3.3001,3.3006,3.3007,3.3,3.2981,3.2988,3.3019,3.3019,3.3019,3.3019,3.3019,3.3019,3.3536,3.3507,3.3483,3.3438,3.3408,3.3373,3.3352,3.3322,3.3291,3.3245,3.3213,3.3183,3.314,3.3095,3.3058,3.3044,3.3031,3.304,3.3023,3.3006,3.3002,3.2997,3.3004,3.3038,3.3038,3.3045,3.3045,3.3045]}]]